Location: Avully
(45.9633°N, 6.0228°E)
Time: 14:38:25
(UTC+00:00)

Cosmos 2082 Rocket - Pass Details

Date: 23 May 2024
Orbit: 832 x 853 km, 71.0° (Epoch: 16 June)

Event Time Altitude Azimuth Distance (km) Brightness Sun altitude
Exits shadow 00:07:00 48° 157° (SSE) 1,102 2.4 -22.9°
Maximum altitude 00:08:13 59° 111° (ESE) 981 2.4 -22.9°
Drops below altitude 10° 00:13:50 10° 33° (NNE) 2,491 5.6 -22.7°
Sets 00:16:19 0° 30° (NNE) 3,430 6.6 -22.7°
